Regional Weather Roundup
Issued by NWS

Home | Current Version | Previous Version | Text Only | Print | Product List | Glossary On
Versions: 1 2 3 4 5 6 7 8 9 10 11 12 13 14 15 16 17 18 19 20 21 22 23 24 25 26 27 28 29 30 31 32 33 34 35 36 37 38 39 40 41 42 43 44 45 46 47 48 49 50
000
ASUS43 KLSX 231710
RWRMO

WEATHER SUMMARY FOR MISSOURI
NATIONAL WEATHER SERVICE SPRINGFIELD MO
1200 PM CDT TUE MAY 23 2017

NOTE: "FAIR" INDICATES FEW OR NO CLOUDS BELOW 12,000 FEET WITH NO
       SIGNIFICANT WEATHER AND/OR OBSTRUCTIONS TO VISIBILITY.
       CURRENT SKY AND/OR WEATHER CONDITIONS ARE NOT AVAILABLE FOR
       CHILLICOTHE AND FARMINGTON.

MOZ001>031-035>038-043-044-053-054-231800-
...NORTHERN AND WESTERN MISSOURI...

CITY           SKY/WX    TMP DP  RH WIND       PRES   REMARKS
KANSAS CTY INT PTSUNNY   64  49  57 NW17      29.87F
KANSAS C DTWN  PTSUNNY   64  48  56 NW12      29.86F
LEE`S SUMMIT   MOSUNNY   65  50  58 N14       29.87F
ST JOSEPH      MOSUNNY   63  49  60 N13       29.87F
CHILLICOTHE      N/A     63  50  62 VRB6      29.84F
KIRKSVILLE     CLOUDY    61  53  75 N8        29.82F

$$
MOZ066>068-077>081-088>096-101>105-231800-
...SOUTHWEST MISSOURI...

CITY           SKY/WX    TMP DP  RH WIND       PRES   REMARKS
SPRINGFIELD    PTSUNNY   65  56  72 NW9       29.82F
JOPLIN         CLOUDY    62  57  83 NW12      29.88S
BRANSON        PTSUNNY   68  57  68 W8        29.83S

$$
MOZ032>034-039>042-045>050-055>058-069>072-231800-
...CENTRAL MISSOURI...

CITY           SKY/WX    TMP DP  RH WIND       PRES   REMARKS
COLUMBIA       CLOUDY    62  57  83 N12       29.80F
JEFFERSON CITY CLOUDY    66  56  70 NW12      29.79F
ROLLA          CLOUDY    61  58  90 NW10      29.78F
SEDALIA        CLOUDY    59  56  89 NW13G22   29.85R
WARRENSBURG    PTSUNNY   61  50  67 NW14G21   29.85F
OSAGE BEACH    CLOUDY    63  56  78 VRB5      29.82S

$$
MOZ051-052-059>065-231800-
...EAST CENTRAL MISSOURI...

CITY           SKY/WX    TMP DP  RH WIND       PRES   REMARKS
ST LOUIS INTL  CLOUDY    67  58  72 N9        29.77S
SPIRIT OF STL  LGT RAIN  64  59  83 W3        29.76S
ST CHARLES     LGT RAIN  63  58  83 N6        29.76F

$$
MOZ072>076-082>087-097>100-106>115-231800-
...SOUTH CENTRAL AND SOUTHEAST MISSOURI...

CITY           SKY/WX    TMP DP  RH WIND       PRES   REMARKS
CAPE GIRARDEAU CLOUDY    72  53  51 W6        29.75F
FARMINGTON     CLOUDY    68  55  63 W5        29.77F
POPLAR BLUFF   PTSUNNY   71  53  52 VRB3      29.75F
WEST PLAINS    CLOUDY    69  58  67 VRB7      29.80F

$$




USA.gov is the U.S. government's official web portal to all federal, state and local government web resources and services.